Regional Weather Roundup
Issued by NWS

Home | Current Version | Previous Version | Text Only | Print | Product List | Glossary Off
Versions: 1 2 3 4 5 6 7 8 9 10 11 12 13 14 15 16 17 18 19 20 21 22 23 24 25 26 27 28 29 30 31 32 33 34 35 36 37 38 39 40 41 42 43 44 45 46 47 48 49 50

000
ASUS43 KBIS 241701
RWRND

NORTH DAKOTA REGIONAL WEATHER ROUNDUP
NATIONAL WEATHER SERVICE BISMARCK ND
1200 PM CDT SUN MAY 24 2015

NOTE: "FAIR" INDICATES FEW OR NO CLOUDS BELOW 12,000 FEET WITH NO
SIGNIFICANT WEATHER AND/OR OBSTRUCTIONS TO VISIBILITY.


NDZ001>003-009>011-017-241800-
NORTHWEST NORTH DAKOTA

CITY           SKY/WX    TMP DP  RH WIND       PRES   REMARKS
WILLISTON      MOSUNNY   69  45  41 SE7       30.02F
MINOT          SUNNY     69  45  41 E8        30.02F
MINOT AFB      SUNNY     74  45  35 SE10      30.01F
$$

NDZ018>021-031>035-040>046-241800-
SOUTHWEST NORTH DAKOTA

CITY           SKY/WX    TMP DP  RH WIND       PRES   REMARKS
BISMARCK       CLOUDY    67  51  56 E12       30.00F
DICKINSON      CLOUDY    61  51  70 E9        30.00F
GARRISON         N/A     67  49  52 SE7       30.02F
HETTINGER ARPT CLOUDY    56  52  86 NE13      30.00F
$$

NDZ004>008-012>016-024-026-027-054-241800-
NORTHEAST NORTH DAKOTA

CITY           SKY/WX    TMP DP  RH WIND       PRES   REMARKS
GRAND FORKS    MOSUNNY   72  47  40 SE9       30.02F
GRND FRKS AFB  MOSUNNY   71  48  44 SE9       30.02F
DEVILS LAKE    MOSUNNY   70  46  43 SE9       30.02F
$$

NDZ022-023-025-028>030-036>039-047>053-241800-
SOUTHEAST NORTH DAKOTA

CITY           SKY/WX    TMP DP  RH WIND       PRES   REMARKS
FARGO          CLOUDY    67  50  54 E10       30.00F
JAMESTOWN      CLOUDY    67  48  50 E15       30.00F
$$




USA.gov is the U.S. government's official web portal to all federal, state and local government web resources and services.